This demonstration page uses our WeatherBlox Daily Observations layout. Learn more.

Left ArrowRight Arrow

39.51506, -84.39828

Hourly Observations for June 10, 2019

Temp ( °F °C ) Dew Point ( °F °C ) Humidity (%) Winds ( mph kmh ) Pressure ( in mb ) Visibility ( mi km ) Precip ( " mm )
12:15 am 00:15 Cloudy with Light Rain 73 22.9 70 20.9 89 89 ESE 3 6 29.91 1013 10 16 N/A
12:35 am 00:35 Cloudy with Drizzle 73 22.5 70 20.9 91 91 SE 5 7 29.91 1013 10 16 0.01 0.25
12:55 am 00:55 Cloudy with Light Rain 72 22.4 70 20.9 91 91 SE 5 7 29.90 1012 10 16 0.01 0.25
1:15 am 01:15 Cloudy with Light Rain 72 22.2 70 20.9 92 92 N N/A 29.90 1013 5 8 0.01 0.25
1:35 am 01:35 Clear with Light Rain 71 21.9 70 20.9 94 94 N N/A 29.89 1012 10 16 0.03 0.76
1:55 am 01:55 Cloudy with Light Rain 72 22 70 20.9 94 94 N N/A 29.88 1012 10 16 0.03 0.76
2:15 am 02:15 Mostly Cloudy with Light Rain 71 21.9 70 20.9 94 94 SSE 6 9 29.88 1012 10 16 N/A
2:35 am 02:35 Cloudy 71 21.9 69 20.7 93 93 S 8 13 29.87 1012 10 16 N/A
2:55 am 02:55 Cloudy with Light Rain 71 21.5 69 20.5 94 94 S 7 11 29.87 1012 10 16 0.01 0.25
3:15 am 03:15 Cloudy with Light Rain 70 21.3 69 20.4 95 95 S 7 11 29.87 1012 10 16 N/A
3:35 am 03:35 Cloudy with Rain 70 21.2 69 20.4 95 95 S 6 9 29.87 1012 10 16 0.03 0.76
3:55 am 03:55 Cloudy with Light Rain 70 21.1 69 20.4 96 96 S 5 7 29.87 1012 10 16 0.04 1.02
4:15 am 04:15 Cloudy 70 21.2 69 20.5 96 96 S 3 6 29.86 1011 10 16 N/A
4:35 am 04:35 Cloudy 70 21.2 69 20.6 96 96 N N/A 29.86 1011 10 16 N/A
4:55 am 04:55 Cloudy with Rain 70 21.2 69 20.6 96 96 N N/A 29.86 1011 7 11 0.01 0.25
5:15 am 05:15 Mostly Cloudy with Light Rain 70 21.1 69 20.7 98 98 N N/A 29.86 1011 4 6 0.04 1.02
5:35 am 05:35 Cloudy with Mist and Fog 70 21.1 69 20.7 98 98 N N/A 29.86 1011 4 6 0.04 1.02
5:55 am 05:55 Cloudy with Light Rain 70 21.1 69 20.8 98 98 W 3 6 29.87 1012 10 16 0.04 1.02
6:15 am 06:15 Cloudy with Light Rain 70 21.1 69 20.8 98 98 WSW 3 6 29.87 1012 4 6 N/A
6:35 am 06:35 Cloudy with Light Rain 70 21.2 70 20.9 98 98 SW 3 6 29.87 1012 3 5 0.01 0.25
6:55 am 06:55 Cloudy with Light Rain 70 21.2 70 20.9 98 98 N N/A 29.88 1012 3 5 0.02 0.51
7:15 am 07:15 Cloudy with Rain 70 21.2 70 20.9 98 98 SW 3 6 29.88 1012 2 3 0.02 0.51
7:35 am 07:35 Cloudy with Light Rain 70 21.2 70 21 99 99 WSW 6 9 29.88 1012 2 3 0.05 1.27
7:55 am 07:55 Cloudy with Drizzle 70 21.3 70 21 98 98 SW 3 6 29.88 1012 7 11 0.05 1.27
8:15 am 08:15 Cloudy 71 21.4 70 21.1 98 98 W 5 7 29.88 1012 10 16 0.01 0.25
8:35 am 08:35 Cloudy 71 21.9 69 20.7 93 93 NW 8 13 29.89 1012 10 16 0.01 0.25
8:55 am 08:55 Cloudy 72 22 69 20.6 92 92 NW 8 13 29.89 1012 10 16 0.01 0.25
9:15 am 09:15 Cloudy 71 21.5 68 20 91 91 NW 15 24 29.90 1013 10 16 N/A
9:35 am 09:35 Cloudy 71 21.6 68 20 91 91 NNW 8 13 29.90 1013 10 16 N/A
9:55 am 09:55 Cloudy 72 22.1 68 20 88 88 NNW 12 19 29.91 1013 10 16 N/A
10:15 am 10:15 Cloudy 72 22.1 67 19.7 86 86 NNW 10 17 29.92 1013 10 16 N/A
10:35 am 10:35 Cloudy 72 22.2 67 19.3 84 84 NNW 14 22 29.92 1013 10 16 N/A
10:55 am 10:55 Cloudy 71 21.5 66 18.8 85 85 NNW 12 19 29.93 1014 10 16 N/A
11:15 am 11:15 Cloudy 71 21.4 65 18.6 84 84 NNW 16 26 29.94 1014 10 16 N/A
11:35 am 11:35 Cloudy 71 21.6 65 18.2 81 81 N 6 9 29.94 1014 10 16 N/A
11:55 am 11:55 Mostly Cloudy 74 23.4 65 18.3 73 73 N 9 15 29.94 1014 10 16 N/A
12:15 pm 12:15 Mostly Cloudy 76 24.3 65 18.6 71 71 N 13 20 29.93 1014 10 16 N/A
12:35 pm 12:35 Mostly Cloudy 76 24.2 65 18.2 69 69 NNW 15 24 29.94 1014 10 16 N/A
12:55 pm 12:55 Partly Cloudy 77 25 66 18.8 69 69 NNW 16 26 29.94 1014 10 16 N/A
1:15 pm 13:15 Partly Cloudy 77 24.9 66 18.8 69 69 NW 18 30 29.94 1014 10 16 N/A
1:35 pm 13:35 Cloudy 76 24.2 65 18.3 70 70 NW 16 26 29.95 1014 10 16 N/A
1:55 pm 13:55 Mostly Cloudy 75 24 65 18.4 71 71 NW 17 28 29.97 1015 10 16 N/A
2:15 pm 14:15 Cloudy 71 21.9 64 17.6 77 77 NNW 18 30 29.98 1015 10 16 N/A
2:35 pm 14:35 Mostly Cloudy 72 22.2 64 17.5 75 75 NW 17 28 29.99 1016 10 16 N/A
2:55 pm 14:55 Cloudy 69 20.8 62 16.6 77 77 NW 12 19 30.00 1016 10 16 N/A
3:15 pm 15:15 Cloudy 69 20.6 61 16.3 76 76 NW 18 30 30.01 1016 10 16 N/A
3:35 pm 15:35 Cloudy 68 20.1 60 15.5 75 75 NW 14 22 30.02 1017 10 16 N/A
3:55 pm 15:55 Cloudy 68 19.9 60 15.4 75 75 NW 13 20 30.03 1017 10 16 N/A
4:15 pm 16:15 Mostly Cloudy 70 21.1 59 15.2 69 69 NW 13 20 30.03 1017 10 16 N/A
4:35 pm 16:35 Mostly Cloudy 71 21.4 59 15.1 67 67 NW 16 26 30.03 1017 10 16 N/A
4:55 pm 16:55 Mostly Cloudy 71 21.8 59 14.8 65 65 NW 20 31 30.04 1017 10 16 N/A
5:15 pm 17:15 Mostly Cloudy 70 20.9 57 14.1 65 65 N 10 17 30.04 1017 10 16 N/A
5:35 pm 17:35 Partly Cloudy 70 21.2 56 13.3 61 61 N 13 20 30.05 1018 10 16 N/A
5:55 pm 17:55 Sunny 70 21 54 12 57 57 N 12 19 30.05 1018 10 16 N/A
6:15 pm 18:15 Sunny 70 21.1 53 11.6 55 55 N 13 20 30.05 1018 10 16 N/A
6:35 pm 18:35 Sunny 70 21 52 11.3 54 54 N 15 24 30.06 1018 10 16 N/A
6:55 pm 18:55 Sunny 70 21.2 53 11.7 55 55 NNW 14 22 30.06 1018 10 16 N/A
7:15 pm 19:15 Sunny 69 20.8 52 10.9 53 53 N 15 24 30.07 1018 10 16 N/A
7:35 pm 19:35 Sunny 68 20.2 50 10 52 52 NNW 17 28 30.08 1019 10 16 N/A
7:55 pm 19:55 Sunny 68 19.8 50 9.8 53 53 N 10 17 30.10 1019 10 16 N/A
8:15 pm 20:15 Sunny 67 19.2 50 9.9 55 55 NNW 10 17 30.11 1020 10 16 N/A
8:35 pm 20:35 Sunny 66 18.8 48 9.1 53 53 NNW 12 19 30.12 1020 10 16 N/A
8:55 pm 20:55 Sunny 64 18 47 8.6 54 54 N 9 15 30.13 1020 10 16 N/A
9:15 pm 21:15 Clear 63 17.2 48 9 59 59 N 5 7 30.14 1021 10 16 N/A
9:35 pm 21:35 Clear 61 16.3 49 9.4 64 64 N N/A 30.15 1021 10 16 N/A
9:55 pm 21:55 Clear 60 15.6 50 9.8 69 69 N 5 7 30.17 1022 10 16 N/A
10:15 pm 22:15 Clear 58 14.6 51 10.4 76 76 N 3 6 30.17 1022 10 16 N/A
10:35 pm 22:35 Clear 58 14.4 50 10 75 75 N N/A 30.18 1022 10 16 N/A
10:55 pm 22:55 Clear 54 12.3 52 11.2 93 93 N N/A 30.18 1022 10 16 N/A
11:15 pm 23:15 Clear 53 11.6 51 10.5 93 93 N N/A 30.19 1022 10 16 N/A
11:35 pm 23:35 Clear 52 11 50 10.1 94 94 N N/A 30.19 1022 10 16 N/A
11:55 pm 23:55 Clear 52 11 50 10.2 95 95 N N/A 30.20 1023 10 16 N/A

Powered by AerisWeather